THOR ABLESTAR DEB, 253

Orbit data source: Space-Track

THOR ABLESTAR DEB, 253 is space debris in LEO originally from a launch on Thu, 29 Jun 1961 UTC launched from the Air Force Eastern Test Range (AFETR). Debris objects in space refer to the collection of defunct objects orbiting the Earth. Examples of debris include non-operational satellites, rocket bodies, and fragments generated from explosions, collisions, or faulty payload assembly.

Loading next visibility...
Identifier
253, 1961-015CE
Orbit
LEO
Country
Flag of USUS
Related business
Manufacturer
Unknown
Mission
Spacecraft
Bus & Motor
Unknown
Mass
Unknown
Launch date (UTC)
1961-06-29 (64 years ago)
Launch vehicle
Unknown
Launch site
Air Force Eastern Test Range (AFETR)
Object type
Payload
Rocket body
Debris
Shape & HBR
Unknown
Radar Cross Section
Small (<0.1 m²)

Expand to show TLE details & history
Last TLE update: 16 hours ago

TLE from 16 hours ago
0 THOR ABLESTAR DEB
1 00253U 61015CE  25259.79910680  .00045426  00000-0  25703-2 0  9996
2 00253  66.9085  77.3295 0021339 251.5755 108.3067 15.12615512338263
Epoch: 2025-09-16T19:10Z
TLE epoch observation values (Epoch: 2025-09-16T19:10:42.827Z)
Latitude
-0.00002°
Longitude
153.66682°
Altitude
535.089 km
Speed
7.593 km/s
True Right ascension
05h 09m 19s
True Declination
0° 00' 00"
Sunlit
Object was in daylight at epoch
Visualization orbit readout
Latitude
Unknown
Longitude
Unknown
Altitude
Unknown
Speed
Unknown
Apparent Right ascension
Unknown
Apparent Declination
Unknown
Sunlit
N/A
Visualization observer readout
Local Sidereal Time
04:08:47
Azimuth
Unknown
Elevation
Unknown
Doppler factor
Unknown
Orbital elements
Apogee altitude
541.248 km
Perigee altitude
511.781 km
Semi-major axis
6,904.652 km
Eccentricity
0.00213
Inclination
66.9085°
RAAN
77.3295°
Arg. of periapsis
251.5755°
True anomaly
108.53866°
Mean anomaly
108.3067°
Eccentric anomaly
108.4227°
Mean motion
3.78295 °/min
Orbital period
95.16 mins
BSTAR
0.0025703
Loading maneuver chart data...
Computing Atmospheric mass density...

Documentation

Showing up to 5 results
|